Nantes/Atlantique

Airport
ICAO code: 
LFRS
Summary
ICAO Region: 
EUR
Territory: 
Location: 
Nantes, Pays de la Loire,
Coordinates: 
Aerial View: 
47° 9' 11.514" N, 1° 36' 38.628" W
Metar
Observation
LFRS 170000Z AUTO VRB02KT 0300 0250 R03/0275N R21/0450N FG VV/// 04/03 Q1036 TEMPO 1500 BR
Station
Nantes
Date/Time
2022-01-17 00:00:00
Wind speed
02 kts
Lowest cloud amount
n/a
Temperature
3°C
Dew point
0°C
Humidity
80%
QNH
1036 hPa
Weather condition
n/a

Description

International airport serving western France and the city of Nantes.

Climatology

Temperate Marine climate/Oceanic climate (Köppen climate classification Cfb). Moderately cool summer and comparatively warm winter with a temperature range of only 14°C. Prevailing south-westerly winds from the Atlantic Ocean.

Runways

Designator Length Width Surface Rops
3/21 2900 45 ASP Yes/Yes
Airport map: 
Aerial View: 

Accidents and Serious Incidents at or in the vicinity of LFRS

SKYbrary Partners:

Safety knowledge contributed by: